This is the latest recevied weather packets stored in our database for station/object W5MAI. If no packets are shown the sender has not sent any weather packets the latest 10 day(s).
| Time | Temp. | Humidity | Pressure | Rain* | Wind** | Luminosity | Snow |
|---|---|---|---|---|---|---|---|
| 1778274856 | 23.89° C | 81% | 1011.3 hPa | 0 mm | - | 311 W/m² | - |
| 1778274225 | 24.44° C | 80% | 1011.6 hPa | 0 mm | - | 274 W/m² | - |
| 1778273657 | 24.44° C | 80% | 1011.5 hPa | 0 mm | - | 239 W/m² | - |
| 1778273019 | 23.89° C | 80% | 1011.7 hPa | 0 mm | - | 278 W/m² | - |
| 1778272445 | 23.89° C | 80% | 1011.7 hPa | 0 mm | - | 345 W/m² | - |
| 1778271817 | 23.89° C | 81% | 1011.8 hPa | 0 mm | - | 401 W/m² | - |
| 1778271248 | 23.89° C | 80% | 1011.9 hPa | 0 mm | - | 441 W/m² | - |
| 1778270603 | 23.89° C | 82% | 1011.9 hPa | 0 mm | - | 404 W/m² | - |
| 1778270033 | 23.33° C | 81% | 1012.1 hPa | 0 mm | - | 480 W/m² | - |
| 1778269442 | 23.33° C | 82% | 1012.2 hPa | 0 mm | - | 496 W/m² | - |
| 1778268815 | 22.78° C | 83% | 1012.5 hPa | 0 mm | - | 315 W/m² | - |
| 1778268232 | 22.78° C | 83% | 1012.5 hPa | 0 mm | - | 237 W/m² | - |
| 1778267648 | 22.22° C | 83% | 1012.5 hPa | 0 mm | - | 283 W/m² | - |
| 1778267053 | 22.22° C | 84% | 1012.6 hPa | 0 mm | - | 246 W/m² | - |
| 1778266425 | 22.22° C | 83% | 1012.6 hPa | 0 mm | - | 283 W/m² | - |
| 1778265855 | 22.22° C | 83% | 1012.7 hPa | 0 mm | - | 432 W/m² | - |
| 1778265207 | 22.22° C | 82% | 1012.9 hPa | 0 mm | - | 207 W/m² | - |
| 1778264029 | 22.22° C | 81% | 1013.3 hPa | 0 mm | - | 174 W/m² | - |
| 1778263460 | 22.22° C | 81% | 1013.4 hPa | 0 mm | - | 197 W/m² | - |
| 1778262813 | 22.22° C | 81% | 1013.7 hPa | 0 mm | - | 199 W/m² | - |
| 1778262222 | 22.22° C | 82% | 1013.8 hPa | 0 mm | - | 304 W/m² | - |
| 1778261654 | 21.67° C | 81% | 1013.8 hPa | 0 mm | - | 288 W/m² | - |
| 1778261007 | 21.67° C | 81% | 1013.8 hPa | 0 mm | - | 338 W/m² | - |
| 1778260444 | 21.67° C | 81% | 1013.9 hPa | 0 mm | - | 309 W/m² | - |
| 1778259802 | 21.11° C | 82% | 1013.9 hPa | 0 mm | - | 403 W/m² | - |
* Rain latest hour (hover to see other rain measurements)
** Current wind speed in m/s (hover to see current wind gust speed)